• In Hungary
  • List of Countries
  • For 7 days
  • Water Temperature
  • Satellite Maps
  • Weather Map
  • News
  • Weather Widgets
  • user-avatar
    Login

    Hourly Weather Maykobulak

    Today, 14 August, Tuesday

    Time Temperature Precipitation Wind Pressure Humidity
    00:00 +21°C° 0.3 mm 2 mps 740 mmHg 72%
    01:00 +21°C° 0.3 mm 2 mps 740 mmHg 74%
    02:00 +21°C° 0 mm 2 mps 740 mmHg 74%
    03:00 +20°C° 0 mm 2 mps 740 mmHg 74%
    04:00 +21°C° 0 mm 2 mps 740 mmHg 75%
    05:00 +21°C° 0.4 mm 2 mps 740 mmHg 73%
    06:00 +21°C° 0.4 mm 2 mps 740 mmHg 70%
    07:00 +23°C° 0.4 mm 2 mps 740 mmHg 68%
    08:00 +24°C° 0.3 mm 2 mps 740 mmHg 62%
    09:00 +25°C° 0.3 mm 2 mps 740 mmHg 56%
    10:00 +26°C° 0 mm 2 mps 740 mmHg 48%
    11:00 +26°C° 0.2 mm 2 mps 740 mmHg 45%
    12:00 +27°C° 0.2 mm 2 mps 740 mmHg 42%
    13:00 +28°C° 0.2 mm 2 mps 739 mmHg 39%
    14:00 +28°C° 0 mm 3 mps 739 mmHg 38%
    15:00 +28°C° 0 mm 3 mps 739 mmHg 38%
    16:00 +28°C° 0 mm 3 mps 739 mmHg 37%
    17:00 +28°C° 0 mm 3 mps 738 mmHg 39%
    18:00 +27°C° 0 mm 2 mps 738 mmHg 40%
    19:00 +27°C° 0 mm 2 mps 738 mmHg 42%
    20:00 +26°C° 0.3 mm 2 mps 739 mmHg 46%
    21:00 +25°C° 0.3 mm 3 mps 739 mmHg 50%
    22:00 +24°C° 0.3 mm 3 mps 739 mmHg 54%
    23:00 +22°C° 0.3 mm 3 mps 739 mmHg 62%

    Tomorrow, 15 August, Wednesday

    Time Temperature Precipitation Wind Pressure Humidity
    00:00 +21°C° 0.3 mm 4 mps 739 mmHg 69%
    01:00 +20°C° 0.3 mm 4 mps 740 mmHg 76%
    02:00 +19°C° 0 mm 4 mps 740 mmHg 79%
    03:00 +19°C° 0 mm 4 mps 740 mmHg 81%
    04:00 +18°C° 0 mm 4 mps 740 mmHg 84%
    05:00 +18°C° 0 mm 4 mps 741 mmHg 80%
    06:00 +18°C° 0 mm 4 mps 741 mmHg 76%
    07:00 +17°C° 0 mm 5 mps 742 mmHg 71%
    08:00 +20°C° 0 mm 5 mps 742 mmHg 63%
    09:00 +21°C° 0 mm 5 mps 742 mmHg 55%
    10:00 +22°C° 0 mm 5 mps 743 mmHg 48%
    11:00 +23°C° 0 mm 5 mps 743 mmHg 44%
    12:00 +26°C° 0 mm 5 mps 743 mmHg 40%
    13:00 +27°C° 0 mm 5 mps 743 mmHg 36%
    14:00 +27°C° 0 mm 5 mps 743 mmHg 35%
    15:00 +27°C° 0 mm 5 mps 743 mmHg 33%
    16:00 +27°C° 0 mm 5 mps 743 mmHg 32%
    17:00 +26°C° 0 mm 5 mps 743 mmHg 35%
    18:00 +26°C° 0 mm 4 mps 743 mmHg 39%
    19:00 +25°C° 0 mm 4 mps 744 mmHg 42%
    20:00 +22°C° 0 mm 3 mps 744 mmHg 46%
    21:00 +21°C° 0 mm 3 mps 744 mmHg 50%
    22:00 +20°C° 0 mm 2 mps 745 mmHg 54%
    23:00 +19°C° 0 mm 2 mps 745 mmHg 56%

    Day after tomorrow, 16 August, Thursday

    Time Temperature Precipitation Wind Pressure Humidity
    00:00 +19°C° 0 mm 2 mps 745 mmHg 59%
    01:00 +18°C° 0 mm 2 mps 745 mmHg 62%
    02:00 +19°C° 0 mm 1 mps 745 mmHg 64%
    03:00 +18°C° 0 mm 1 mps 745 mmHg 66%
    04:00 +18°C° 0 mm 1 mps 745 mmHg 68%
    05:00 +18°C° 0 mm 1 mps 745 mmHg 66%
    06:00 +19°C° 0 mm 1 mps 745 mmHg 63%
    07:00 +20°C° 0 mm 1 mps 746 mmHg 61%
    08:00 +21°C° 0 mm 1 mps 746 mmHg 56%
    09:00 +23°C° 0 mm 1 mps 746 mmHg 50%
    10:00 +24°C° 0 mm 1 mps 746 mmHg 45%
    11:00 +25°C° 0 mm 1 mps 746 mmHg 41%
    12:00 +26°C° 0 mm 1 mps 746 mmHg 37%
    13:00 +27°C° 0 mm 2 mps 746 mmHg 32%
    14:00 +27°C° 0 mm 2 mps 745 mmHg 30%
    15:00 +28°C° 0 mm 2 mps 745 mmHg 28%
    16:00 +28°C° 0 mm 2 mps 745 mmHg 26%
    17:00 +28°C° 0 mm 2 mps 745 mmHg 29%
    18:00 +27°C° 0 mm 1 mps 745 mmHg 32%
    19:00 +26°C° 0 mm 1 mps 744 mmHg 35%
    20:00 +25°C° 0 mm 1 mps 745 mmHg 37%
    21:00 +24°C° 0 mm 1 mps 745 mmHg 39%
    22:00 +23°C° 0 mm 1 mps 745 mmHg 41%
    23:00 +22°C° 0 mm 1 mps 744 mmHg 41%

    17 August, Friday

    Time Temperature Precipitation Wind Pressure Humidity
    00:00 +22°C° 0 mm 1 mps 744 mmHg 41%
    01:00 +22°C° 0 mm 1 mps 744 mmHg 40%
    02:00 +20°C° 0 mm 2 mps 744 mmHg 41%
    03:00 +20°C° 0 mm 2 mps 744 mmHg 42%
    04:00 +20°C° 0 mm 2 mps 744 mmHg 42%
    05:00 +21°C° 0 mm 2 mps 744 mmHg 41%
    06:00 +23°C° 0 mm 2 mps 744 mmHg 40%
    07:00 +23°C° 0 mm 2 mps 744 mmHg 39%
    08:00 +25°C° 0 mm 2 mps 744 mmHg 35%
    09:00 +27°C° 0 mm 2 mps 744 mmHg 31%
    10:00 +29°C° 0 mm 3 mps 744 mmHg 28%
    11:00 +29°C° 0 mm 3 mps 744 mmHg 26%
    12:00 +30°C° 0 mm 3 mps 743 mmHg 25%
    13:00 +31°C° 0 mm 3 mps 743 mmHg 24%
    14:00 +31°C° 0 mm 3 mps 742 mmHg 23%
    15:00 +33°C° 0 mm 3 mps 742 mmHg 22%
    16:00 +33°C° 0 mm 4 mps 742 mmHg 21%
    17:00 +31°C° 0 mm 3 mps 741 mmHg 24%
    18:00 +30°C° 0 mm 2 mps 741 mmHg 27%
    19:00 +29°C° 0 mm 2 mps 741 mmHg 30%
    20:00 +28°C° 0 mm 2 mps 741 mmHg 34%
    21:00 +27°C° 0 mm 3 mps 741 mmHg 39%
    22:00 +25°C° 0 mm 3 mps 741 mmHg 43%
    23:00 +24°C° 0 mm 3 mps 741 mmHg 50%

    18 August, Saturday

    Time Temperature Precipitation Wind Pressure Humidity
    00:00 +22°C° 0 mm 3 mps 740 mmHg 58%
    01:00 +21°C° 0 mm 3 mps 740 mmHg 65%
    02:00 +21°C° 0.1 mm 4 mps 740 mmHg 70%
    03:00 +20°C° 0.1 mm 4 mps 740 mmHg 75%
    04:00 +19°C° 0.1 mm 4 mps 740 mmHg 80%
    05:00 +19°C° 0.7 mm 4 mps 740 mmHg 80%
    06:00 +19°C° 0.7 mm 4 mps 740 mmHg 81%
    07:00 +19°C° 0.7 mm 4 mps 740 mmHg 81%
    08:00 +20°C° 0.1 mm 4 mps 740 mmHg 76%
    09:00 +20°C° 0.1 mm 4 mps 740 mmHg 70%
    10:00 +21°C° 0.1 mm 4 mps 740 mmHg 64%
    11:00 +22°C° 0 mm 4 mps 740 mmHg 58%
    12:00 +23°C° 0 mm 5 mps 740 mmHg 53%
    13:00 +25°C° 0 mm 5 mps 740 mmHg 47%
    14:00 +26°C° 0 mm 5 mps 740 mmHg 45%
    15:00 +26°C° 0 mm 5 mps 740 mmHg 44%
    16:00 +26°C° 0 mm 5 mps 740 mmHg 42%
    17:00 +25°C° 0 mm 5 mps 740 mmHg 45%
    18:00 +23°C° 0 mm 5 mps 740 mmHg 48%
    19:00 +22°C° 0 mm 5 mps 740 mmHg 51%
    20:00 +21°C° 0 mm 5 mps 740 mmHg 56%
    21:00 +20°C° 0 mm 4 mps 740 mmHg 60%
    22:00 +19°C° 0 mm 4 mps 740 mmHg 65%
    23:00 +18°C° 0 mm 4 mps 740 mmHg 67%

    19 August, Sunday

    Time Temperature Precipitation Wind Pressure Humidity
    00:00 +17°C° 0 mm 4 mps 740 mmHg 70%
    01:00 +17°C° 0 mm 4 mps 740 mmHg 72%
    02:00 +15°C° 0 mm 4 mps 740 mmHg 73%
    03:00 +15°C° 0 mm 4 mps 740 mmHg 74%
    04:00 +14°C° 0 mm 4 mps 741 mmHg 75%
    05:00 +15°C° 0 mm 4 mps 741 mmHg 72%
    06:00 +15°C° 0 mm 5 mps 741 mmHg 68%
    07:00 +15°C° 0 mm 5 mps 741 mmHg 65%
    08:00 +17°C° 0 mm 6 mps 741 mmHg 58%
    09:00 +19°C° 0 mm 6 mps 741 mmHg 52%
    10:00 +21°C° 0 mm 6 mps 741 mmHg 45%
    11:00 +22°C° 0 mm 6 mps 741 mmHg 43%
    12:00 +22°C° 0 mm 6 mps 741 mmHg 40%
    13:00 +23°C° 0 mm 6 mps 741 mmHg 38%
    14:00 +23°C° 0 mm 6 mps 741 mmHg 39%
    15:00 +23°C° 0 mm 7 mps 741 mmHg 39%
    16:00 +23°C° 0 mm 7 mps 741 mmHg 40%
    17:00 +22°C° 0 mm 6 mps 741 mmHg 42%
    18:00 +21°C° 0 mm 5 mps 741 mmHg 45%
    19:00 +21°C° 0 mm 5 mps 742 mmHg 47%
    20:00 +20°C° 0 mm 5 mps 742 mmHg 51%
    21:00 +19°C° 0 mm 5 mps 742 mmHg 54%
    22:00 +18°C° 0 mm 4 mps 742 mmHg 57%
    23:00 +17°C° 0 mm 4 mps 742 mmHg 59%
    Show more